Weather in Vilshana

Ukraine / Sumi District     50°48′34″N   34°01′48″E
temp.,
°C
wind,
m/s
gust,
m/s
humid.,
%
clouds,
%
prec.,
mm/h
press.,
hPa
HPBL,
m
23 october, sat
sat2300:00+11wsw41151100 0.0 1013372
03:00+8sw48615 0.0 1012128
06:00+8sw477279 0.1 1012119
09:00+9wsw49702 0.1 1012300
12:00+12w8114564 0.0 10141279
15:00+12w8124735 0.0 10152015
18:00+8wnw49565 0.0 1016223
21:00+5wnw33685 0.0 101954
24 october, sun
sun2400:00+4w36745 0.0 1020130
03:00+3wsw367842 0.0 1020115
06:00+5wsw3964100 0.0 1020303
09:00+5w4875100 0.0 1022427
12:00+8wnw6768100 0.1 10221044
15:00+7nw7867100 0.4 10231293
18:00+5nw6966100 0.0 1025938
21:00+5nnw5970100 0.1 1027828
25 october, mon
mon2500:00+3nnw48816 0.1 1028283
03:000nw38865 0.1 1030203
06:00−1nnw35885 0.0 1032112
09:00+1nnw247749 0.0 1033178
12:00+5n33555 0.0 1033754
15:00+6nw22463 0.0 1032971
18:00+3wnw11575 0.0 103310
21:00+2sw11625 0.0 103310
26 october, tue
tue2600:00+1ssw22653 0.0 103320
03:000ssw33680 0.0 103427
06:00−1ssw33715 0.0 103328
09:00+1ssw36635 0.0 1033151
12:00+7ssw46445 0.0 1032579
15:00+9ssw56375 0.0 1030781
18:00+5ssw34495 0.0 102958
21:00+3ssw37552 0.0 1029100
27 october, wed
wed2700:00+2s48540 0.0 1029122
03:00+1s47550 0.0 1028110
06:000s37560 0.0 1027113
09:00+2ssw49540 0.0 1027217
12:00+8ssw68450 0.0 1025656
15:00+9ssw56320 0.0 1023907
18:00+5sw3449100 0.0 102348
21:00+4sw3457100 0.0 102360